LFPG

Charles de Gaulle International Airport

ICAO Code LFPG
IATA Code CDG
Name Charles de Gaulle International Airport
Location Paris, Ile-de-France, FR
Elevation 392 Feet / 119.5 Meters
Latitude 49.01279831
Longitude 2.54999995
METAR LFPG 260500Z 17005KT 0300 R27L/0700D R09R/0700D R26R/0700D R08L/0600N R26L/0900U R08R/P2000 R27R/0650D R09L/0750D FG VV/// 08/08 Q1022 TEMPO 0300 FG VV///
Extra information Display Charts and CFS
Display NOTAMS
Runway Length Width Surface Elevation
08L 13829 ft 148 ft ASP 338 ft
08R 8858 ft 197 ft CON 336 ft
09L 8858 ft 197 ft ASP 378 ft
09R 13780 ft 148 ft ASP 370 ft
26R 13829 ft 148 ft ASP 318 ft
26L 8858 ft 197 ft CON 316 ft
27R 8858 ft 197 ft ASP 392 ft
27L 13780 ft 148 ft ASP 387 ft